Orbital Elements at Epoch 2459000.5 (2020-May-31.0) TDB
Reference: JPL 7 (heliocentric ecliptic J2000)
Element | Value | Uncertainty (1-sigma) | Units |
e | .5279355696086805 | 0.00019189 | |
a | 2.080135429012057 | 0.00083495 | au |
q | .9819579464333796 | 5.0153e-06 | au |
i | 6.041412116119418 | 0.0015731 | deg |
node | 126.19925750 | 0.00015863 | deg |
peri | 9.737160176318383 | 0.00020777 | deg |
M | 278.5845387786592 | 0.16797 | deg |
tp | 2459248.322212599270 (2021-Feb-02.82221260) | 0.66049 | TDB |
period | 1095.811473611745 3.00 | 0.65978 0.001806 | d yr |
n | .3285236636676711 | 0.0001978 | deg/d |
Q | 3.178312911590734 | 0.0012758 | au |
|
| | Orbit Determination Parameters
Additional Information
|